Date String (YYYY-MM-DD hh:mm:ss) UTC,Instrument flags,Ambient pressure (hPa),Sample flow (lpm),Bypass flow (lpm),Sample temperature (°C),Ambient temperature (°C),ASC tube jacket temperature (°C),LED temperature (°C),Box temperature (°C),Sample RH (%),Span deviation,Mass concentration (μg/m³),Mass concentration (μg/m³),Mass concentration (μg/m³)
DateTimeUTC,F1_M11,P_M11,Q1_M11,Q2_M11,T1_M11,T2_M11,T3_M11,T4_M11,T5_M11,U1_M11,ZSPAN_M11,X0_M11,X2_M11,X1_M11
2023-02-06 06:00:00,,0816.0,5.00,0.00,22.6,20.8,00.0,31.6,24.1,11.3,0000.0,0005.36,0002.55,0001.76
2023-02-06 06:01:00,,0816.0,5.01,0.00,22.6,20.8,00.0,31.6,24.1,11.3,0000.0,0005.31,0002.51,0001.75
2023-02-06 06:02:00,,0816.0,4.95,0.00,22.5,20.8,00.0,31.6,24.1,11.4,0000.0,0005.08,0002.44,0001.73
2023-02-06 06:03:00,,0815.9,5.02,0.00,22.5,20.8,00.0,31.6,24.1,11.5,0000.0,0004.97,0002.42,0001.72
2023-02-06 06:04:00,,0816.0,5.01,0.00,22.5,20.8,00.0,31.6,24.1,11.6,0000.0,0004.78,0002.43,0001.72
2023-02-06 06:05:00,,0816.0,4.97,0.00,22.5,20.7,00.0,31.5,24.0,11.8,0000.0,0003.63,0002.43,0001.70
2023-02-06 06:06:00,,0816.0,5.02,0.00,22.5,20.7,00.0,31.5,24.0,11.9,0000.0,0004.10,0002.40,0001.69
2023-02-06 06:07:00,,0815.9,5.00,0.00,22.4,20.7,00.0,31.5,24.0,11.8,0000.0,0004.24,0002.44,0001.69
2023-02-06 06:08:00,,0815.9,4.97,0.00,22.4,20.7,00.0,31.5,23.9,11.9,0000.0,0004.14,0002.40,0001.69
2023-02-06 06:09:00,,0815.9,5.02,0.00,22.4,20.6,00.0,31.5,23.9,12.0,0000.0,0004.14,0002.36,0001.66
2023-02-06 06:10:00,,0815.9,5.02,0.00,22.4,20.6,00.0,31.4,23.9,12.1,0000.0,0004.18,0002.31,0001.64
2023-02-06 06:11:00,,0815.9,4.96,0.00,22.3,20.6,00.0,31.4,23.9,12.1,0000.0,0004.09,0002.23,0001.62
2023-02-06 06:12:00,,0815.8,5.01,0.00,22.3,20.6,00.0,31.4,23.9,12.2,0000.0,0004.01,0002.20,0001.60
2023-02-06 06:13:00,,0815.9,5.02,0.00,22.3,20.6,00.0,31.4,23.8,12.2,0000.0,0003.88,0002.16,0001.57
2023-02-06 06:14:00,,0815.8,4.98,0.00,22.3,20.5,00.0,31.4,23.8,12.3,0000.0,0003.78,0002.10,0001.54
2023-02-06 06:15:00,,0815.9,4.98,0.00,22.3,20.5,00.0,31.3,23.8,12.3,0000.0,0003.73,0002.05,0001.51
2023-02-06 06:16:00,,0815.9,5.04,0.00,22.2,20.5,00.0,31.3,23.8,12.6,0000.0,0003.94,0002.04,0001.48
2023-02-06 06:17:00,,0815.9,4.98,0.00,22.2,20.5,00.0,31.3,23.8,12.6,0000.0,0003.81,0002.03,0001.45
2023-02-06 06:18:00,,0815.9,4.98,0.00,22.2,20.5,00.0,31.3,23.7,12.8,0000.0,0005.25,0002.00,0001.42
2023-02-06 06:19:00,,0815.9,5.02,0.00,22.2,20.5,00.0,31.3,23.7,12.9,0000.0,0005.52,0001.99,0001.38
2023-02-06 06:20:00,,0815.9,5.01,0.00,22.2,20.5,00.0,31.2,23.7,12.8,0000.0,0005.39,0001.92,0001.34
2023-02-06 06:21:00,,0815.9,4.96,0.00,22.2,20.4,00.0,31.2,23.7,12.7,0000.0,0005.35,0001.91,0001.31
2023-02-06 06:22:00,,0815.9,5.03,0.00,22.1,20.4,00.0,31.2,23.6,12.9,0000.0,0006.23,0001.95,0001.29
2023-02-06 06:23:00,,0815.9,5.00,0.00,22.1,20.4,00.0,31.2,23.6,12.9,0000.0,0006.35,0001.99,0001.27
2023-02-06 06:24:00,,0815.9,4.97,0.00,22.1,20.4,00.0,31.2,23.5,12.9,0000.0,0006.37,0001.99,0001.26
2023-02-06 06:25:00,,0815.9,5.02,0.00,22.1,20.4,00.0,31.2,23.6,12.9,0000.0,0006.40,0001.98,0001.24
2023-02-06 06:26:00,,0815.8,4.98,0.00,22.1,20.4,00.0,31.1,23.6,13.1,0000.0,0006.33,0001.96,0001.23
2023-02-06 06:27:00,,0815.8,4.99,0.00,22.0,20.3,00.0,31.1,23.5,13.2,0000.0,0006.07,0001.90,0001.23
2023-02-06 06:28:00,,0815.8,5.01,0.00,22.0,20.3,00.0,31.1,23.5,13.4,0000.0,0005.60,0001.85,0001.23
2023-02-06 06:29:00,,0815.8,5.00,0.00,22.0,20.4,00.0,31.1,23.7,13.5,0000.0,0004.28,0001.81,0001.24
2023-02-06 06:30:00,,0815.8,4.98,0.00,22.1,21.2,00.0,31.0,24.0,13.5,0000.0,0003.87,0001.83,0001.24
2023-02-06 06:31:00,,0815.8,5.02,0.00,22.2,22.2,00.0,31.0,24.3,13.5,0000.0,0003.99,0001.88,0001.28
2023-02-06 06:32:00,,0815.9,4.98,0.00,22.3,22.8,00.0,31.0,24.5,13.5,0000.0,0003.96,0001.89,0001.30
2023-02-06 06:33:00,,0815.8,4.97,0.00,22.4,22.5,00.0,31.1,24.5,13.5,0000.0,0003.21,0001.88,0001.32
2023-02-06 06:34:00,,0815.8,5.03,0.00,22.4,22.1,00.0,31.1,24.4,13.4,0000.0,0002.92,0001.84,0001.34
2023-02-06 06:35:00,,0815.8,5.02,0.00,22.4,21.8,00.0,31.2,24.3,13.6,0000.0,0002.92,0001.86,0001.36
2023-02-06 06:36:00,,0815.7,4.98,0.00,22.4,21.6,00.0,31.2,24.2,13.7,0000.0,0002.98,0001.89,0001.39
2023-02-06 06:37:00,,0815.6,5.02,0.00,22.4,21.4,00.0,31.2,24.1,13.8,0000.0,0003.53,0001.92,0001.39
2023-02-06 06:38:00,,0815.7,4.96,0.00,22.4,21.3,00.0,31.2,24.1,14.0,0000.0,0004.25,0001.95,0001.39
2023-02-06 06:39:00,,0816.0,5.03,0.00,22.4,21.2,00.0,31.2,24.1,14.0,0000.0,0004.60,0001.98,0001.39
2023-02-06 06:40:00,,0815.9,5.00,0.00,22.4,21.1,00.0,31.2,24.0,13.8,0000.0,0004.62,0001.99,0001.37
2023-02-06 06:41:00,,0816.0,4.99,0.00,22.3,21.0,00.0,31.2,24.0,14.0,0000.0,0004.47,0001.96,0001.36
2023-02-06 06:42:00,,0816.1,5.03,0.00,22.3,20.8,00.0,31.2,23.9,14.1,0000.0,0004.27,0001.86,0001.33
2023-02-06 06:43:00,,0816.0,4.95,0.00,22.3,20.8,00.0,31.2,23.9,14.2,0000.0,0004.30,0001.85,0001.31
2023-02-06 06:44:00,,0815.9,5.03,0.00,22.3,20.7,00.0,31.2,23.8,14.2,0000.0,0004.42,0001.86,0001.29
2023-02-06 06:45:00,,0815.6,5.01,0.00,22.2,20.7,00.0,31.2,23.9,14.2,0000.0,0004.67,0001.87,0001.27
2023-02-06 06:46:00,,0815.9,4.96,0.00,22.2,20.6,00.0,31.2,23.9,14.2,0000.0,0004.75,0001.89,0001.25
2023-02-06 06:47:00,,0816.1,5.02,0.00,22.2,20.6,00.0,31.2,23.8,14.5,0000.0,0004.68,0001.84,0001.22
2023-02-06 06:48:00,,0816.1,4.95,0.00,22.2,20.5,00.0,31.2,23.8,14.6,0000.0,0004.14,0001.79,0001.20
2023-02-06 06:49:00,,0816.1,5.03,0.00,22.2,20.5,00.0,31.2,23.7,14.7,0000.0,0003.56,0001.80,0001.20
2023-02-06 06:50:00,,0815.9,5.00,0.00,22.1,20.4,00.0,31.2,23.6,14.6,0000.0,0003.32,0001.81,0001.18
2023-02-06 06:51:00,,0815.8,4.97,0.00,22.1,20.8,00.0,31.1,23.8,14.6,0000.0,0003.25,0001.78,0001.18
2023-02-06 06:52:00,,0815.5,5.04,0.00,22.2,21.9,00.0,31.1,24.2,14.4,0000.0,0003.34,0001.82,0001.17
2023-02-06 06:53:00,,0815.4,4.99,0.00,22.4,22.9,00.0,31.1,24.5,14.3,0000.0,0003.31,0001.83,0001.16
2023-02-06 06:54:00,,0815.6,4.98,0.00,22.5,22.7,00.0,31.2,24.6,14.3,0000.0,0003.15,0001.78,0001.16
2023-02-06 06:55:00,,0815.4,4.99,0.00,22.5,22.3,00.0,31.2,24.5,14.3,0000.0,0003.12,0001.78,0001.15
2023-02-06 06:56:00,,0815.4,5.03,0.00,22.5,21.9,00.0,31.2,24.4,14.4,0000.0,0002.95,0001.75,0001.15
2023-02-06 06:57:00,,0815.4,4.96,0.00,22.5,21.7,00.0,31.3,24.3,14.3,0000.0,0003.02,0001.75,0001.13
2023-02-06 06:58:00,,0815.4,5.03,0.00,22.5,21.5,00.0,31.3,24.3,14.4,0000.0,0002.96,0001.73,0001.12
2023-02-06 06:59:00,,0815.4,5.00,0.00,22.5,21.3,00.0,31.3,24.1,14.4,0000.0,0002.80,0001.71,0001.13
